Radiation Dose at Monitoring Post of Fukushima Daini Nuclear Power Station
Date,Time,MP-1(microSv/h),MP-2(microSv/h),MP-3(microSv/h),MP-4(microSv/h),MP-5(microSv/h),MP-6(microSv/h),MP-7(microSv/h),Wind Direction,Wind Velocity(m/s),Rain
2023/02/25,00:00,0.156,0.140,0.218,0.214,0.214,0.123,0.079,northwest,3.3,No
2023/02/25,00:10,0.156,0.141,0.219,0.215,0.214,0.123,0.079,northwest,2.9,No
2023/02/25,00:20,0.156,0.142,0.220,0.215,0.212,0.123,0.079,north-northwest,3.0,No
2023/02/25,00:30,0.155,0.141,0.218,0.214,0.215,0.123,0.079,north-northwest,2.9,No
2023/02/25,00:40,0.156,0.141,0.218,0.215,0.214,0.123,0.079,north-northwest,3.2,No
2023/02/25,00:50,0.154,0.140,0.218,0.216,0.214,0.123,0.079,north-northwest,3.7,No
2023/02/25,01:00,0.155,0.142,0.219,0.215,0.213,0.123,0.079,north-northwest,4.3,No
2023/02/25,01:10,0.156,0.142,0.220,0.215,0.214,0.123,0.079,northwest,4.3,No
2023/02/25,01:20,0.156,0.141,0.219,0.215,0.215,0.123,0.078,north-northwest,6.0,No
2023/02/25,01:30,0.155,0.140,0.219,0.215,0.214,0.124,0.078,north-northwest,7.6,No
2023/02/25,01:40,0.155,0.141,0.219,0.215,0.212,0.123,0.079,northwest,7.0,No
2023/02/25,01:50,0.156,0.141,0.219,0.214,0.213,0.123,0.078,northwest,7.8,No
2023/02/25,02:00,0.156,0.140,0.219,0.214,0.214,0.123,0.078,northwest,6.6,No
2023/02/25,02:10,0.155,0.141,0.218,0.214,0.214,0.122,0.078,northwest,6.5,No
2023/02/25,02:20,0.155,0.141,0.220,0.213,0.213,0.122,0.078,northwest,6.7,No
2023/02/25,02:30,0.155,0.141,0.220,0.214,0.214,0.123,0.078,northwest,6.5,No
2023/02/25,02:40,0.155,0.141,0.219,0.215,0.213,0.123,0.078,northwest,5.7,No
2023/02/25,02:50,0.155,0.141,0.219,0.214,0.214,0.124,0.079,northwest,6.7,No
2023/02/25,03:00,0.156,0.140,0.219,0.214,0.214,0.123,0.079,northwest,6.6,No
2023/02/25,03:10,0.155,0.140,0.218,0.215,0.215,0.124,0.079,northwest,5.6,No
2023/02/25,03:20,0.155,0.141,0.218,0.213,0.213,0.123,0.079,west-northwest,6.4,No
2023/02/25,03:30,0.155,0.141,0.219,0.214,0.213,0.123,0.078,west-northwest,7.0,No
2023/02/25,03:40,0.155,0.142,0.219,0.214,0.213,0.123,0.079,west-northwest,6.7,No
2023/02/25,03:50,0.155,0.140,0.219,0.215,0.213,0.124,0.079,northwest,5.4,No
2023/02/25,04:00,0.156,0.141,0.219,0.214,0.214,0.123,0.079,northwest,7.0,No
2023/02/25,04:10,0.155,0.140,0.219,0.215,0.214,0.123,0.078,northwest,9.6,No
2023/02/25,04:20,0.155,0.141,0.218,0.214,0.214,0.123,0.078,northwest,9.0,No
2023/02/25,04:30,0.154,0.142,0.219,0.213,0.214,0.122,0.079,northwest,11.2,No
2023/02/25,04:40,0.157,0.141,0.220,0.213,0.213,0.123,0.078,west-northwest,12.9,No
2023/02/25,04:50,0.155,0.142,0.219,0.215,0.214,0.123,0.078,west-northwest,8.8,No
2023/02/25,05:00,0.155,0.141,0.218,0.213,0.215,0.123,0.079,west-northwest,8.8,No
2023/02/25,05:10,0.155,0.142,0.219,0.214,0.214,0.123,0.078,west-northwest,8.4,No
2023/02/25,05:20,0.155,0.141,0.219,0.214,0.214,0.123,0.078,west-northwest,7.3,No
2023/02/25,05:30,0.156,0.141,0.219,0.214,0.215,0.123,0.077,northwest,7.1,No
2023/02/25,05:40,0.155,0.142,0.219,0.215,0.214,0.123,0.078,northwest,7.5,No
2023/02/25,05:50,0.156,0.140,0.219,0.214,0.214,0.124,0.078,west-northwest,7.5,No
2023/02/25,06:00,0.156,0.141,0.218,0.213,0.214,0.123,0.079,northwest,7.3,No
2023/02/25,06:10,0.156,0.141,0.219,0.214,0.214,0.123,0.079,northwest,8.1,No
2023/02/25,06:20,0.155,0.141,0.219,0.214,0.213,0.123,0.078,northwest,8.1,No
2023/02/25,06:30,0.155,0.142,0.220,0.215,0.214,0.123,0.078,northwest,7.9,No
2023/02/25,06:40,0.155,0.141,0.220,0.214,0.214,0.123,0.079,west-northwest,6.9,No
2023/02/25,06:50,0.155,0.140,0.219,0.213,0.214,0.123,0.078,northwest,7.0,No
2023/02/25,07:00,0.155,0.142,0.218,0.215,0.214,0.123,0.079,northwest,6.4,No
2023/02/25,07:10,0.156,0.141,0.219,0.214,0.215,0.124,0.079,northwest,4.2,No
2023/02/25,07:20,0.157,0.140,0.220,0.214,0.213,0.123,0.078,northwest,3.9,No
2023/02/25,07:30,0.156,0.141,0.219,0.213,0.214,0.123,0.078,northwest,6.5,No
2023/02/25,07:40,0.154,0.141,0.218,0.213,0.214,0.123,0.079,west-northwest,6.7,No
2023/02/25,07:50,0.157,0.140,0.218,0.214,0.213,0.123,0.078,west-northwest,5.5,No
2023/02/25,08:00,0.155,0.141,0.218,0.214,0.214,0.123,0.078,northwest,7.4,No
2023/02/25,08:10,0.155,0.140,0.219,0.213,0.214,0.123,0.078,west-northwest,8.5,No
2023/02/25,08:20,0.156,0.142,0.220,0.214,0.215,0.123,0.078,west-northwest,6.5,No
2023/02/25,08:30,0.156,0.141,0.219,0.214,0.213,0.122,0.078,west-northwest,7.6,No
2023/02/25,08:40,0.156,0.142,0.219,0.214,0.214,0.123,0.078,west-northwest,8.4,No
2023/02/25,08:50,0.155,0.141,0.218,0.215,0.214,0.122,0.078,west-northwest,8.9,Yes
2023/02/25,09:00,0.156,0.141,0.218,0.214,0.214,0.122,0.079,northwest,7.6,Yes
2023/02/25,09:10,0.155,0.141,0.218,0.214,0.214,0.123,0.078,west-northwest,7.3,No
2023/02/25,09:20,0.156,0.142,0.219,0.215,0.215,0.123,0.077,west-northwest,7.5,Yes
2023/02/25,09:30,0.155,0.141,0.220,0.213,0.213,0.123,0.079,west-northwest,7.3,Yes
2023/02/25,09:40,0.155,0.141,0.218,0.215,0.215,0.123,0.078,northwest,7.4,No
2023/02/25,09:50,0.154,0.141,0.218,0.214,0.215,0.123,0.079,northwest,7.6,Yes
2023/02/25,10:00,0.156,0.140,0.219,0.213,0.214,0.123,0.079,northwest,6.3,Yes
2023/02/25,10:10,0.155,0.141,0.218,0.214,0.213,0.122,0.078,northwest,6.6,No
2023/02/25,10:20,0.155,0.140,0.219,0.214,0.213,0.124,0.078,northwest,7.3,Yes
2023/02/25,10:30,0.155,0.141,0.218,0.215,0.215,0.123,0.078,north-northwest,6.2,No
2023/02/25,10:40,0.156,0.141,0.218,0.215,0.214,0.124,0.078,northwest,6.5,No
2023/02/25,10:50,0.156,0.141,0.218,0.215,0.214,0.124,0.078,north-northwest,6.0,No
2023/02/25,11:00,0.156,0.140,0.219,0.215,0.216,0.124,0.079,west-northwest,6.6,No
2023/02/25,11:10,0.155,0.141,0.218,0.213,0.213,0.122,0.078,west,12.5,No
2023/02/25,11:20,0.156,0.140,0.217,0.214,0.214,0.123,0.079,west-northwest,7.9,No
2023/02/25,11:30,0.154,0.140,0.217,0.213,0.214,0.122,0.077,west-northwest,9.2,No
2023/02/25,11:40,0.156,0.140,0.219,0.213,0.215,0.122,0.078,west-northwest,7.5,No
2023/02/25,11:50,0.154,0.140,0.218,0.213,0.212,0.122,0.078,west,9.8,No
2023/02/25,12:00,0.155,0.141,0.218,0.213,0.214,0.122,0.078,west-northwest,9.7,No
2023/02/25,12:10,0.155,0.140,0.218,0.214,0.212,0.123,0.077,west-northwest,9.8,No
2023/02/25,12:20,0.155,0.141,0.218,0.212,0.213,0.123,0.078,west-northwest,6.3,No
2023/02/25,12:30,0.156,0.140,0.219,0.214,0.214,0.123,0.078,west-northwest,11.5,No
2023/02/25,12:40,0.155,0.141,0.217,0.213,0.215,0.123,0.078,west-northwest,12.0,No
2023/02/25,12:50,0.156,0.140,0.219,0.214,0.214,0.123,0.078,west,11.8,No
2023/02/25,13:00,0.155,0.140,0.218,0.213,0.214,0.122,0.078,west-northwest,11.2,No
2023/02/25,13:10,0.156,0.140,0.219,0.214,0.215,0.123,0.078,west-northwest,7.6,No
2023/02/25,13:20,0.156,0.140,0.218,0.213,0.214,0.124,0.078,west-northwest,12.6,No
2023/02/25,13:30,0.155,0.141,0.219,0.214,0.216,0.122,0.078,west-northwest,11.2,No
2023/02/25,13:40,0.156,0.140,0.218,0.214,0.214,0.123,0.078,west-northwest,12.8,No
2023/02/25,13:50,0.155,0.141,0.219,0.214,0.215,0.123,0.079,west-northwest,9.0,No
2023/02/25,14:00,0.156,0.141,0.218,0.215,0.213,0.122,0.078,west-northwest,6.7,No
2023/02/25,14:10,0.156,0.140,0.217,0.215,0.214,0.124,0.078,west-northwest,10.4,No
2023/02/25,14:20,0.155,0.139,0.220,0.215,0.213,0.123,0.078,west-northwest,11.7,No
2023/02/25,14:30,0.156,0.140,0.218,0.214,0.214,0.123,0.078,west-northwest,9.0,No
2023/02/25,14:40,0.155,0.141,0.218,0.214,0.214,0.122,0.078,west-northwest,8.2,No
2023/02/25,14:50,0.155,0.141,0.219,0.215,0.215,0.122,0.078,west-northwest,8.1,No
2023/02/25,15:00,0.156,0.141,0.219,0.215,0.215,0.122,0.079,west-northwest,12.0,No
2023/02/25,15:10,0.156,0.141,0.219,0.214,0.215,0.123,0.078,west-northwest,8.4,No
2023/02/25,15:20,0.157,0.142,0.220,0.215,0.215,0.123,0.078,northwest,10.4,No
2023/02/25,15:30,0.155,0.141,0.220,0.215,0.216,0.123,0.079,west-northwest,6.4,No
2023/02/25,15:40,0.155,0.142,0.220,0.215,0.215,0.123,0.078,west-northwest,5.6,No
2023/02/25,15:50,0.156,0.141,0.219,0.216,0.215,0.123,0.079,west-northwest,5.5,No
2023/02/25,16:00,0.156,0.141,0.219,0.216,0.215,0.123,0.079,northwest,6.5,No
2023/02/25,16:10,0.155,0.140,0.219,0.215,0.214,0.124,0.079,northwest,9.2,No
2023/02/25,16:20,0.156,0.141,0.221,0.215,0.214,0.123,0.078,northwest,9.0,No
2023/02/25,16:30,0.157,0.142,0.220,0.215,0.214,0.125,0.078,northwest,8.9,No
2023/02/25,16:40,0.157,0.142,0.219,0.215,0.214,0.124,0.077,northwest,8.6,No
2023/02/25,16:50,0.156,0.143,0.220,0.215,0.215,0.124,0.079,northwest,7.7,No
2023/02/25,17:00,0.156,0.142,0.219,0.217,0.215,0.123,0.079,west-northwest,9.5,No
2023/02/25,17:10,0.156,0.142,0.220,0.215,0.215,0.123,0.078,northwest,10.0,No
2023/02/25,17:20,0.157,0.142,0.220,0.215,0.214,0.123,0.078,northwest,7.3,No
2023/02/25,17:30,0.156,0.141,0.219,0.214,0.215,0.124,0.078,northwest,3.1,No
2023/02/25,17:40,0.157,0.141,0.220,0.214,0.215,0.124,0.078,north-northwest,4.0,No
2023/02/25,17:50,0.156,0.142,0.219,0.216,0.214,0.124,0.078,north-northwest,4.7,No
2023/02/25,18:00,0.157,0.141,0.220,0.215,0.214,0.123,0.078,northwest,5.4,No
2023/02/25,18:10,0.156,0.142,0.220,0.216,0.214,0.123,0.078,north-northwest,4.5,No
2023/02/25,18:20,0.157,0.141,0.220,0.214,0.214,0.123,0.078,northwest,4.8,No
2023/02/25,18:30,0.156,0.140,0.220,0.214,0.214,0.123,0.078,north-northwest,5.8,No
2023/02/25,18:40,0.156,0.140,0.219,0.215,0.214,0.123,0.078,north-northwest,5.0,No
2023/02/25,18:50,0.155,0.141,0.220,0.215,0.214,0.122,0.078,north-northwest,4.1,No
2023/02/25,19:00,0.155,0.141,0.219,0.216,0.214,0.123,0.078,north-northwest,6.2,No
2023/02/25,19:10,0.156,0.140,0.220,0.216,0.213,0.123,0.079,northwest,5.8,No
2023/02/25,19:20,0.156,0.142,0.220,0.216,0.214,0.123,0.078,north-northwest,6.0,No
2023/02/25,19:30,0.156,0.142,0.219,0.215,0.213,0.123,0.078,north-northwest,4.2,No
2023/02/25,19:40,0.157,0.142,0.219,0.215,0.214,0.124,0.079,northwest,6.3,No
2023/02/25,19:50,0.156,0.141,0.219,0.215,0.215,0.123,0.078,north-northwest,7.0,No
2023/02/25,20:00,0.156,0.141,0.219,0.215,0.214,0.123,0.079,northwest,5.9,No
2023/02/25,20:10,0.156,0.141,0.219,0.215,0.214,0.124,0.078,north-northwest,4.6,No
2023/02/25,20:20,0.156,0.141,0.219,0.216,0.214,0.123,0.078,north-northwest,3.8,No
2023/02/25,20:30,0.156,0.141,0.218,0.215,0.214,0.123,0.078,north-northwest,3.6,No
2023/02/25,20:40,0.156,0.140,0.219,0.215,0.215,0.123,0.078,north-northwest,2.5,No
2023/02/25,20:50,0.156,0.141,0.220,0.215,0.214,0.123,0.078,north,2.4,No
2023/02/25,21:00,0.156,0.141,0.220,0.216,0.215,0.123,0.079,north-northwest,3.0,No
2023/02/25,21:10,0.156,0.141,0.219,0.215,0.214,0.122,0.077,northwest,3.3,No
2023/02/25,21:20,0.156,0.140,0.219,0.215,0.214,0.123,0.079,northwest,3.4,No
2023/02/25,21:30,0.156,0.141,0.220,0.215,0.215,0.123,0.078,northwest,3.3,No
2023/02/25,21:40,0.156,0.141,0.219,0.216,0.214,0.124,0.078,northwest,3.2,No
2023/02/25,21:50,0.156,0.142,0.220,0.215,0.214,0.122,0.078,north-northwest,3.3,No
2023/02/25,22:00,0.156,0.141,0.220,0.216,0.214,0.124,0.079,north-northwest,2.9,No
2023/02/25,22:10,0.156,0.142,0.220,0.214,0.215,0.123,0.079,north-northwest,4.6,No
2023/02/25,22:20,0.156,0.141,0.219,0.215,0.215,0.123,0.079,north-northwest,6.7,No
2023/02/25,22:30,0.156,0.141,0.220,0.215,0.214,0.123,0.078,north,5.3,No
2023/02/25,22:40,0.156,0.142,0.220,0.215,0.213,0.123,0.079,north,4.1,No
2023/02/25,22:50,0.156,0.140,0.219,0.216,0.213,0.124,0.078,north-northeast,2.6,No
2023/02/25,23:00,0.155,0.140,0.219,0.215,0.215,0.123,0.078,north,2.5,No
2023/02/25,23:10,0.156,0.141,0.220,0.215,0.214,0.123,0.079,north,3.0,No
2023/02/25,23:20,0.156,0.141,0.219,0.215,0.214,0.124,0.079,north,3.1,No
2023/02/25,23:30,0.156,0.142,0.219,0.215,0.214,0.123,0.079,north-northwest,2.8,No
2023/02/25,23:40,0.156,0.141,0.220,0.215,0.214,0.123,0.079,north-northwest,3.2,No
2023/02/25,23:50,0.156,0.141,0.218,0.216,0.214,0.124,0.078,north-northwest,3.1,No
